EW9042 Weather Reports


time (UTC)temp
C
wind
direction
speed
KPH
gust
KPH
rain 1hr
cm
rain 24hr
cm
rain mn
cm
humidity
%
barometer
mb
20260507224048 8 67 0.0 0.0 0.00 0.03 0.00 93 1014.2
20260507223548 8 67 0.0 0.0 0.00 0.03 0.00 93 1014.2
20260507223048 8 67 0.0 0.0 0.00 0.03 0.00 93 1014.2
20260507222546 8 67 0.0 0.0 0.00 0.03 0.00 93 1014.2
20260507222047 8 67 0.0 0.0 0.00 0.03 0.00 93 1014.2
20260507221547 8 67 0.0 0.0 0.00 0.03 0.00 93 1014.3
20260507221146 8 67 0.0 0.0 0.00 0.03 0.00 92 1014.4
20260507220544 8 67 0.0 0.0 0.00 0.03 0.00 92 1014.4
20260507220043 8 67 0.0 0.0 0.00 0.03 0.00 92 1014.3
20260507215548 9 67 0.0 0.0 0.00 0.03 0.03 92 1014.3
20260507215043 9 67 0.0 0.0 0.00 0.03 0.03 92 1014.4
20260507214542 9 67 0.0 0.0 0.00 0.03 0.03 91 1014.2
20260507214042 9 67 0.0 0.0 0.00 0.03 0.03 91 1014.2
20260507213543 9 67 0.0 0.0 0.00 0.03 0.03 91 1014.1
20260507213051 9 67 0.0 0.0 0.00 0.03 0.03 90 1014.1
20260507212546 9 67 0.0 0.0 0.00 0.03 0.03 91 1014.2
20260507212042 9 67 0.0 0.0 0.00 0.03 0.03 90 1014.2
20260507211542 10 67 0.0 0.0 0.00 0.03 0.03 90 1014.2
20260507211041 10 67 0.0 0.0 0.00 0.03 0.03 90 1014.1
20260507210544 10 67 0.0 0.0 0.00 0.03 0.03 90 1014.1
20260507210048 10 67 0.0 0.0 0.00 0.03 0.03 90 1014.1
20260507205541 10 67 0.0 0.0 0.00 0.03 0.03 90 1014.0
20260507205042 10 67 0.0 0.0 0.00 0.03 0.03 90 1014.0
20260507204540 10 67 0.0 0.0 0.00 0.03 0.03 90 1013.9
20260507204044 11 67 0.0 0.0 0.00 0.03 0.03 90 1013.9
20260507203540 11 67 0.0 0.0 0.00 0.03 0.03 90 1013.8
20260507203044 11 67 0.0 0.0 0.00 0.03 0.03 89 1013.8
20260507202540 11 67 0.0 0.0 0.00 0.03 0.03 89 1013.8
20260507202040 11 67 0.0 0.0 0.00 0.03 0.03 89 1013.7
20260507201540 11 67 0.0 0.0 0.00 0.03 0.03 89 1013.7
20260507201040 11 67 0.0 0.0 0.00 0.03 0.03 88 1013.6
20260507200540 11 67 0.0 0.0 0.00 0.03 0.03 88 1013.6
20260507200039 12 67 0.0 0.0 0.00 0.03 0.03 88 1013.5
20260507195543 12 67 0.0 0.0 0.00 0.03 0.03 87 1013.4
20260507195040 12 67 0.0 0.0 0.00 0.03 0.03 87 1013.4
20260507194609 12 67 0.0 0.0 0.00 0.03 0.03 87 1013.3
20260507194038 12 67 0.0 0.0 0.00 0.03 0.03 87 1013.3
20260507193538 12 67 0.0 0.0 0.00 0.03 0.03 87 1013.2
20260507193041 12 67 0.0 0.0 0.00 0.03 0.03 87 1013.3
20260507192542 12 67 0.0 0.0 0.00 0.03 0.03 87 1013.2
20260507192039 12 67 0.0 0.0 0.00 0.03 0.03 87 1013.2
20260507191537 12 67 0.0 0.0 0.00 0.03 0.03 87 1013.2
20260507191037 12 67 0.0 0.0 0.00 0.03 0.03 87 1013.2
20260507190537 12 67 0.0 0.0 0.00 0.03 0.03 87 1013.2
20260507190037 12 67 0.0 0.0 0.00 0.03 0.03 87 1013.2
20260507185537 12 67 0.0 0.0 0.00 0.03 0.03 87 1013.2
20260507185036 12 67 0.0 0.0 0.00 0.03 0.03 87 1013.2
20260507184538 12 67 0.0 0.0 0.00 0.03 0.03 87 1013.2
20260507184036 12 67 0.0 0.0 0.00 0.03 0.03 87 1013.1
20260507183535 12 67 0.0 0.0 0.00 0.03 0.03 87 1013.1
20260507183043 12 67 0.0 0.0 0.00 0.03 0.03 87 1013.1
20260507182536 12 67 0.0 0.0 0.00 0.03 0.03 87 1013.2
20260507182036 12 67 0.0 0.0 0.00 0.03 0.03 87 1013.1
20260507181535 13 67 0.0 0.0 0.00 0.03 0.03 87 1013.1
20260507181038 13 67 0.0 0.0 0.00 0.03 0.03 87 1013.1
20260507180536 13 69 0.0 0.0 0.00 0.03 0.03 87 1013.1
20260507180038 13 94 0.0 0.0 0.00 0.03 0.03 86 1013.2
20260507175535 13 94 0.0 0.0 0.00 0.03 0.03 86 1013.2
20260507175035 13 94 0.0 0.0 0.00 0.03 0.03 86 1013.2
20260507174541 13 94 0.0 0.0 0.00 0.03 0.03 85 1013.1
20260507174034 13 94 0.0 0.0 0.00 0.03 0.03 85 1013.1
20260507173534 13 94 0.0 0.0 0.00 0.03 0.03 85 1013.2
20260507173052 13 94 0.0 0.0 0.00 0.03 0.03 85 1013.2
20260507172635 13 94 0.0 0.0 0.00 0.03 0.03 85 1013.1
20260507172034 13 94 0.0 0.0 0.00 0.03 0.03 85 1013.1
20260507171543 13 94 0.0 0.0 0.00 0.03 0.03 84 1013.1
20260507171033 13 94 0.0 0.0 0.00 0.03 0.03 84 1013.0
20260507170533 13 94 0.0 0.0 0.00 0.03 0.03 84 1013.0
20260507170034 13 94 0.0 0.0 0.00 0.03 0.03 84 1013.0
20260507165533 13 94 0.0 0.0 0.00 0.03 0.03 84 1013.0
20260507165036 14 94 0.0 0.0 0.00 0.03 0.03 83 1013.0
20260507164541 14 94 0.0 0.0 0.00 0.03 0.03 83 1012.9
20260507164032 14 94 0.0 0.0 0.00 0.03 0.03 82 1013.0
20260507163533 14 94 0.0 0.0 0.00 0.03 0.03 82 1012.9
20260507163032 14 94 0.0 0.0 0.00 0.03 0.03 81 1012.9
20260507162532 14 94 0.0 4.8 0.00 0.03 0.03 80 1012.9
20260507162035 14 94 0.0 4.8 0.00 0.03 0.03 80 1012.9
20260507161536 14 85 0.0 16.1 0.00 0.03 0.03 80 1012.9
20260507161031 14 119 0.0 16.1 0.00 0.03 0.03 79 1013.0
20260507160634 14 150 0.0 16.1 0.00 0.03 0.03 79 1013.1
20260507160038 14 148 3.2 16.1 0.00 0.03 0.03 78 1013.0
20260507155532 14 120 3.2 17.7 0.00 0.03 0.03 78 1013.1
20260507155031 14 21 6.4 17.7 0.00 0.03 0.03 77 1013.1
20260507154531 14 240 1.6 25.7 0.00 0.03 0.03 77 1013.0
20260507154030 15 212 8.0 19.3 0.00 0.03 0.03 77 1013.0
20260507153529 15 219 3.2 16.1 0.00 0.03 0.03 75 1012.8
20260507153032 15 186 11.3 16.1 0.00 0.03 0.03 72 1012.9
20260507152534 15 157 3.2 16.1 0.00 0.03 0.03 69 1012.8
20260507152029 15 208 4.8 14.5 0.00 0.03 0.03 69 1012.7
20260507151530 16 104 1.6 9.7 0.00 0.03 0.03 69 1012.7
20260507151028 16 121 0.0 4.8 0.00 0.03 0.03 69 1012.7
20260507150533 16 74 0.0 8.0 0.00 0.03 0.03 68 1012.7
20260507150028 16 133 0.0 11.3 0.00 0.03 0.03 68 1012.8
20260507145527 16 173 4.8 11.3 0.00 0.03 0.03 67 1012.8
20260507145027 16 143 0.0 12.9 0.00 0.03 0.03 68 1012.8
20260507144532 16 132 0.0 11.3 0.00 0.03 0.03 67 1012.9
20260507144028 16 19 1.6 9.7 0.00 0.03 0.03 66 1012.9
20260507143526 16 178 0.0 17.7 0.00 0.03 0.03 68 1012.9
20260507143026 17 130 8.0 17.7 0.00 0.03 0.03 65 1012.9
20260507142525 17 77 0.0 16.1 0.00 0.03 0.03 67 1012.9
20260507142024 17 106 1.6 16.1 0.00 0.03 0.03 65 1013.0
20260507141524 17 112 1.6 24.1 0.00 0.03 0.03 66 1013.1
20260507141023 17 137 8.0 24.1 0.00 0.03 0.03 64 1013.2
20260507140523 17 198 9.7 22.5 0.00 0.03 0.03 65 1013.3
20260507140023 17 93 0.0 14.5 0.00 0.03 0.03 67 1013.2
20260507135520 17 73 0.0 17.7 0.00 0.03 0.03 69 1013.2
20260507135023 17 94 4.8 17.7 0.00 0.03 0.03 68 1013.2
20260507134519 16 183 0.0 11.3 0.00 0.03 0.03 70 1013.4
20260507134017 16 170 1.6 14.5 0.00 0.03 0.03 71 1013.4
20260507133516 16 123 1.6 14.5 0.00 0.03 0.03 72 1013.5
20260507133016 16 96 0.0 12.9 0.00 0.03 0.03 72 1013.6
20260507132519 15 115 3.2 12.9 0.00 0.03 0.03 72 1013.6
20260507132015 15 100 0.0 14.5 0.00 0.03 0.03 72 1013.7
20260507131526 15 103 3.2 14.5 0.00 0.03 0.03 72 1013.7
20260507131016 15 51 3.2 14.5 0.00 0.03 0.03 73 1013.7
20260507130516 15 107 3.2 14.5 0.00 0.03 0.03 71 1013.7
20260507130016 15 115 4.8 17.7 0.00 0.03 0.03 71 1013.7
20260507125515 15 179 4.8 16.1 0.00 0.03 0.03 72 1013.7
20260507125016 15 123 4.8 16.1 0.00 0.03 0.03 73 1013.7
20260507124518 15 41 0.0 12.9 0.00 0.03 0.03 74 1013.8
20260507124014 15 112 1.6 12.9 0.00 0.03 0.03 74 1013.8
20260507123515 15 57 3.2 12.9 0.00 0.03 0.03 74 1013.8
20260507123014 15 74 0.0 11.3 0.00 0.03 0.03 74 1014.0
20260507122513 15 138 0.0 9.7 0.00 0.03 0.03 75 1014.0
20260507122013 15 117 3.2 9.7 0.00 0.03 0.03 75 1014.0
20260507121514 15 60 3.2 9.7 0.00 0.03 0.03 74 1014.1
20260507121013 15 157 0.0 14.5 0.00 0.03 0.03 72 1014.1
20260507120512 15 98 4.8 14.5 0.00 0.03 0.03 74 1014.1
20260507120031 15 110 3.2 14.5 0.00 0.03 0.03 72 1014.1
20260507115512 16 194 1.6 16.1 0.00 0.03 0.03 72 1014.1
20260507115013 16 70 4.8 16.1 0.00 0.03 0.03 70 1014.1
20260507114511 16 193 1.6 12.9 0.00 0.03 0.03 70 1014.1
20260507114111 16 157 0.0 12.9 0.00 0.03 0.03 69 1014.1
20260507113513 16 181 6.4 12.9 0.00 0.03 0.03 69 1014.2
20260507113032 16 105 1.6 17.7 0.00 0.03 0.03 70 1014.2
20260507112515 16 144 6.4 17.7 0.00 0.03 0.03 70 1014.4
20260507112014 16 156 0.0 12.9 0.00 0.03 0.03 71 1014.3
20260507111507 16 145 3.2 9.7 0.00 0.03 0.03 75 1014.5
20260507111004 16 80 0.0 12.9 0.00 0.03 0.03 73 1014.5
20260507110504 16 175 4.8 14.5 0.00 0.03 0.03 77 1014.5
20260507110009 15 174 4.8 12.9 0.00 0.03 0.03 77 1014.6
20260507105503 15 119 3.2 12.9 0.00 0.03 0.03 75 1014.7
20260507105002 15 93 1.6 12.9 0.00 0.03 0.03 75 1014.7
20260507104502 15 165 1.6 17.7 0.00 0.03 0.03 76 1014.8
20260507104103 15 164 6.4 17.7 0.00 0.03 0.03 77 1014.8
20260507103559 15 158 9.7 19.3 0.00 0.03 0.03 76 1014.9
20260507103057 14 156 0.0 12.9 0.00 0.03 0.03 77 1014.9
20260507102555 14 119 3.2 11.3 0.00 0.03 0.03 81 1014.9
20260507102054 13 158 3.2 16.1 0.00 0.03 0.03 78 1014.9
20260507101600 13 119 4.8 16.1 0.00 0.03 0.03 80 1014.9
20260507101051 13 122 0.0 9.7 0.00 0.03 0.03 81 1015.0
20260507100551 12 90 1.6 11.3 0.00 0.03 0.03 80 1015.0
20260507100049 12 100 1.6 11.3 0.00 0.03 0.03 80 1015.0
20260507095548 12 127 3.2 12.9 0.00 0.03 0.03 80 1015.0
20260507095049 12 120 1.6 12.9 0.00 0.03 0.03 81 1015.0
20260507094551 11 73 0.0 9.7 0.00 0.03 0.03 82 1015.0
20260507094043 11 96 1.6 9.7 0.00 0.03 0.03 82 1014.9
20260507093542 11 155 0.0 14.5 0.00 0.03 0.03 82 1015.0
20260507093041 11 149 0.0 12.9 0.00 0.03 0.03 82 1014.9
20260507092540 11 141 4.8 12.9 0.00 0.03 0.03 82 1015.0
20260507092042 11 159 0.0 11.3 0.00 0.03 0.03 83 1014.9
20260507091538 11 117 1.6 11.3 0.00 0.03 0.03 83 1014.8
20260507091036 10 59 0.0 6.4 0.00 0.03 0.03 85 1014.8
20260507090535 10 75 0.0 6.4 0.00 0.03 0.03 84 1014.8
20260507090035 10 72 0.0 6.4 0.00 0.03 0.03 84 1014.9
20260507085534 10 44 0.0 9.7 0.00 0.03 0.03 84 1014.8
20260507085033 10 29 0.0 9.7 0.00 0.03 0.03 84 1014.8
20260507084533 10 96 0.0 6.4 0.00 0.03 0.03 84 1014.8
20260507084031 10 64 0.0 0.0 0.00 0.03 0.03 84 1014.9
20260507083531 10 65 0.0 1.6 0.00 0.03 0.03 84 1014.9
20260507083031 10 168 0.0 1.6 0.00 0.03 0.03 84 1014.8
20260507082531 10 127 0.0 0.0 0.00 0.03 0.03 85 1014.8
20260507082033 10 127 0.0 1.6 0.00 0.03 0.03 84 1014.8
20260507081541 10 122 0.0 1.6 0.03 0.03 0.03 84 1014.9
20260507081031 10 98 0.0 4.8 0.03 0.03 0.03 84 1014.9
20260507080535 10 217 0.0 4.8 0.03 0.03 0.03 84 1014.9
20260507080033 10 96 0.0 4.8 0.03 0.03 0.03 84 1014.8
20260507075529 10 98 0.0 0.0 0.03 0.03 0.03 84 1014.8
20260507075030 10 128 0.0 0.0 0.03 0.03 0.03 85 1014.9
20260507074532 10 94 0.0 3.2 0.03 0.03 0.03 84 1014.8
20260507074031 10 94 0.0 12.9 0.03 0.03 0.03 84 1014.7
20260507073529 10 155 1.6 12.9 0.03 0.03 0.03 84 1014.7
20260507073028 10 92 0.0 0.0 0.03 0.03 0.03 84 1014.8
20260507072528 10 94 0.0 0.0 0.03 0.03 0.03 84 1014.8
20260507072027 10 87 0.0 0.0 0.00 0.00 0.00 84 1014.7
20260507071534 10 133 0.0 0.0 0.00 0.00 0.00 85 1014.7
20260507071026 10 68 0.0 0.0 0.00 0.00 0.00 85 1014.7
20260507070527 10 9 0.0 0.0 0.00 0.00 0.00 85 1014.6
20260507070024 10 360 0.0 0.0 0.00 0.00 0.00 85 1014.7
20260507065525 10 279 0.0 0.0 0.00 0.00 0.00 86 1014.6
20260507065122 9 122 0.0 0.0 0.00 0.00 0.00 86 1014.6
20260507064520 9 129 0.0 0.0 0.00 0.00 0.00 86 1014.6
20260507064020 9 130 0.0 0.0 0.00 0.00 0.00 86 1014.6
20260507063518 9 130 0.0 0.0 0.00 0.00 0.00 87 1014.6
20260507063017 9 75 0.0 0.0 0.00 0.00 0.00 87 1014.6
20260507062519 9 75 0.0 0.0 0.00 0.00 0.00 87 1014.5
20260507062019 9 75 0.0 0.0 0.00 0.00 0.00 87 1014.6
20260507061521 8 74 0.0 0.0 0.00 0.00 0.00 87 1014.5
20260507061015 8 85 0.0 0.0 0.00 0.00 0.00 88 1014.5
20260507060513 8 85 0.0 0.0 0.00 0.00 0.00 88 1014.5
20260507060016 8 85 0.0 0.0 0.00 0.00 0.00 89 1014.4
20260507055512 8 85 0.0 0.0 0.00 0.00 0.00 89 1014.4
20260507055012 8 85 0.0 0.0 0.00 0.00 0.00 89 1014.4
20260507054510 8 85 0.0 0.0 0.00 0.00 0.00 89 1014.3
20260507054111 8 85 0.0 0.0 0.00 0.00 0.00 89 1014.2
20260507053508 8 85 0.0 0.0 0.00 0.00 0.00 89 1014.2
20260507053006 8 85 0.0 0.0 0.00 0.00 0.00 89 1014.2
20260507052506 8 85 0.0 0.0 0.00 0.00 0.00 89 1014.2
20260507052006 8 85 0.0 0.0 0.00 0.00 0.00 89 1014.1
20260507051505 8 85 0.0 0.0 0.00 0.00 0.00 89 1014.2
20260507051005 8 85 0.0 0.0 0.00 0.00 0.00 89 1014.1
20260507050503 8 85 0.0 0.0 0.00 0.00 0.00 89 1014.1
20260507050003 8 85 0.0 0.0 0.00 0.03 0.00 89 1014.1
20260507045503 8 85 0.0 0.0 0.00 0.03 0.00 89 1014.1
20260507045003 8 85 0.0 0.0 0.00 0.03 0.00 89 1014.1
20260507044506 8 85 0.0 0.0 0.00 0.03 0.00 89 1014.1
20260507044002 8 85 0.0 0.0 0.00 0.03 0.00 89 1014.0
20260507043502 8 85 0.0 0.0 0.00 0.03 0.00 89 1014.0
20260507043002 8 85 0.0 0.0 0.00 0.03 0.00 89 1014.0
20260507042600 8 85 0.0 0.0 0.00 0.03 0.00 89 1013.9
20260507042103 8 85 0.0 0.0 0.00 0.03 0.00 90 1013.9
20260507041610 8 86 0.0 0.0 0.00 0.03 0.00 90 1013.9
20260507041059 8 86 0.0 0.0 0.00 0.03 0.00 91 1013.9
20260507040600 8 86 0.0 0.0 0.00 0.03 0.00 91 1013.9
20260507040107 8 69 0.0 0.0 0.00 0.03 0.00 92 1013.9
20260507035558 9 69 0.0 0.0 0.00 0.03 0.00 92 1013.9
20260507035058 9 69 0.0 0.0 0.00 0.03 0.00 92 1013.9
20260507034619 9 65 0.0 0.0 0.00 0.03 0.00 92 1013.9
20260507034056 9 65 0.0 0.0 0.00 0.03 0.00 93 1013.9
20260507033556 9 65 0.0 0.0 0.00 0.03 0.00 93 1013.8
20260507033106 9 65 0.0 0.0 0.00 0.03 0.00 93 1013.8
20260507032556 9 65 0.0 0.0 0.00 0.03 0.00 93 1013.8
20260507032055 9 65 0.0 0.0 0.00 0.03 0.00 93 1013.7
20260507031555 9 65 0.0 0.0 0.00 0.03 0.00 93 1013.8
20260507031054 9 65 0.0 0.0 0.00 0.03 0.00 93 1013.8
20260507030553 9 65 0.0 0.0 0.00 0.03 0.00 93 1013.8
20260507030053 9 65 0.0 0.0 0.00 0.03 0.00 93 1013.8
20260507025554 10 65 0.0 0.0 0.00 0.03 0.00 93 1013.8
20260507025053 10 65 0.0 0.0 0.00 0.03 0.00 94 1013.9
20260507024558 10 65 0.0 0.0 0.00 0.03 0.00 94 1013.8
20260507024053 10 65 0.0 0.0 0.00 0.03 0.00 94 1013.7
20260507023552 10 65 0.0 0.0 0.00 0.03 0.00 94 1013.8
20260507023051 10 65 0.0 0.0 0.00 0.03 0.00 93 1013.7
20260507022552 10 65 0.0 0.0 0.00 0.03 0.00 94 1013.8
20260507022052 10 65 0.0 0.0 0.00 0.03 0.00 94 1013.9
20260507021558 10 65 0.0 0.0 0.00 0.03 0.00 94 1013.8
20260507021051 10 65 0.0 0.0 0.00 0.03 0.00 94 1013.8
20260507020550 10 65 0.0 0.0 0.00 0.03 0.00 94 1013.8
20260507020050 10 65 0.0 0.0 0.00 0.03 0.00 94 1013.8
20260507015550 10 65 0.0 0.0 0.00 0.03 0.00 93 1013.8
20260507015050 10 65 0.0 0.0 0.00 0.03 0.00 93 1013.8
20260507014552 10 65 0.0 0.0 0.00 0.03 0.00 93 1013.8
20260507014048 10 65 0.0 0.0 0.00 0.03 0.00 93 1013.8
20260507013548 10 65 0.0 0.0 0.00 0.03 0.00 93 1013.8
20260507013058 10 65 0.0 0.0 0.00 0.03 0.00 93 1013.8
20260507012550 10 65 0.0 0.0 0.00 0.03 0.00 93 1013.8
20260507012048 10 65 0.0 0.0 0.00 0.03 0.00 93 1013.8
20260507011547 10 65 0.0 0.0 0.00 0.03 0.00 93 1013.8
20260507011049 10 65 0.0 0.0 0.00 0.03 0.00 93 1013.8
20260507010548 10 65 0.0 0.0 0.00 0.03 0.00 93 1013.8
20260507010051 10 65 0.0 0.0 0.00 0.03 0.00 93 1013.7
20260507005549 10 65 0.0 0.0 0.00 0.03 0.00 93 1013.8
20260507005045 10 65 0.0 0.0 0.00 0.03 0.00 93 1013.8
20260507004545 10 65 0.0 0.0 0.00 0.03 0.00 93 1013.8
20260507004044 10 65 0.0 0.0 0.00 0.03 0.00 93 1013.8
20260507003544 10 65 0.0 0.0 0.00 0.03 0.00 93 1013.8
20260507003043 10 65 0.0 0.0 0.00 0.03 0.00 93 1013.9
20260507002543 10 65 0.0 0.0 0.00 0.03 0.00 93 1013.9
20260507002043 10 65 0.0 0.0 0.00 0.03 0.00 93 1013.9
20260507001604 10 65 0.0 0.0 0.00 0.03 0.00 93 1013.9
20260507001042 10 65 0.0 0.0 0.00 0.03 0.00 93 1014.0
20260507000541 10 65 0.0 0.0 0.00 0.03 0.00 92 1014.0
20260507000041 10 65 0.0 0.0 0.00 0.03 0.00 92 1014.0
20260506235540 10 65 0.0 0.0 0.00 0.03 0.00 92 1014.0
20260506235040 10 65 0.0 0.0 0.00 0.03 0.00 92 1014.1
20260506234549 10 65 0.0 0.0 0.00 0.03 0.00 92 1014.0
20260506234040 10 65 0.0 0.0 0.00 0.03 0.00 92 1014.0
20260506233541 10 65 0.0 0.0 0.00 0.03 0.00 92 1014.1
20260506233040 10 65 0.0 0.0 0.00 0.03 0.00 92 1014.0
20260506232539 10 65 0.0 0.0 0.00 0.03 0.00 92 1014.1
20260506232040 10 65 0.0 0.0 0.00 0.03 0.00 92 1014.1
20260506231539 10 65 0.0 0.0 0.00 0.03 0.00 92 1014.1
20260506231040 10 65 0.0 0.0 0.00 0.03 0.00 92 1014.1
20260506230538 10 65 0.0 0.0 0.00 0.03 0.00 91 1014.1
20260506230038 10 65 0.0 0.0 0.00 0.03 0.00 91 1014.2
20260506225538 10 65 0.0 0.0 0.00 0.03 0.00 91 1014.2
20260506225040 10 65 0.0 0.0 0.00 0.03 0.00 91 1014.1
20260506224546 10 65 0.0 0.0 0.00 0.03 0.00 91 1014.1